TRA5887 EHAM-LGSA

Flight info

Callsign TRA5887
Flight time 3h 3m
Altitude 35000
Route EDUPO Z739 MISGO DCT DIXAT DCT DOJOH DCT DODEN DCT NEGIX DCT DINKU M867 XERUM DCT BAVAX DCT RADIZ DCT NEMEK/N0441F370 DCT ELTIB DCT GLOMY DCT PETAK DCT DIMIS DCT VELOP UY151 IXIMA UL612 RUSOS
Aircraft A21N/M-SBDE2E3FGHIJ1J5M1P2RWXYZ/LB1D1G1

Departure

Time 2026-05-08 13:45
Airport Amsterdam Airport Schiphol (EHAM)

Arrival

Time 2026-05-08 16:49
Airport Chania International Airport (LGSA)
Time Latitude Longitude Altitude Speed Heading
2026-05-08 12:54 52.30902 4.77112 4 ft 0 kts
2026-05-08 13:27 52.30901 4.77112 4 ft 2 kts
2026-05-08 13:27 52.30876 4.77115 4 ft 4 kts 341°
2026-05-08 13:28 52.30860 4.77123 4 ft 2 kts 37°
2026-05-08 13:28 52.30844 4.77103 4 ft 1 kts 37°
2026-05-08 13:34 52.30848 4.77113 4 ft 2 kts 62°
2026-05-08 13:34 52.30847 4.77155 4 ft 5 kts 96°
2026-05-08 13:34 52.30843 4.77228 4 ft 8 kts 92°
2026-05-08 13:34 52.30838 4.77333 4 ft 11 kts 92°
2026-05-08 13:35 52.30813 4.77454 4 ft 13 kts 154°
2026-05-08 13:35 52.30720 4.77457 4 ft 14 kts 184°
2026-05-08 13:35 52.30630 4.77392 4 ft 15 kts 233°
2026-05-08 13:35 52.30571 4.77241 4 ft 16 kts 238°
2026-05-08 13:36 52.30510 4.77080 4 ft 17 kts 238°
2026-05-08 13:36 52.30442 4.76905 4 ft 19 kts 237°
2026-05-08 13:36 52.30369 4.76716 4 ft 20 kts 238°
2026-05-08 13:36 52.30291 4.76512 4 ft 22 kts 238°
2026-05-08 13:37 52.30208 4.76293 4 ft 23 kts 238°
2026-05-08 13:37 52.30119 4.76062 4 ft 25 kts 238°
2026-05-08 13:37 52.30024 4.75815 4 ft 26 kts 238°
2026-05-08 13:37 52.29926 4.75558 4 ft 27 kts 238°
2026-05-08 13:38 52.29834 4.75297 4 ft 24 kts 263°
2026-05-08 13:38 52.29903 4.75078 4 ft 23 kts 312°
2026-05-08 13:38 52.30011 4.74881 4 ft 24 kts 312°
2026-05-08 13:38 52.30124 4.74675 13 ft 25 kts 311°
2026-05-08 13:39 52.30241 4.74458 15 ft 25 kts 311°
2026-05-08 13:39 52.30313 4.74322 8 ft 10 kts 311°
2026-05-08 13:39 52.30353 4.74246 4 ft 9 kts 310°
2026-05-08 13:39 52.30371 4.74161 5 ft 5 kts 265°
2026-05-08 13:40 52.30368 4.74140 5 ft 0 kts 255°
2026-05-08 13:41 52.30367 4.74129 5 ft 2 kts 250°
2026-05-08 13:41 52.30360 4.74104 4 ft 3 kts 239°
2026-05-08 13:41 52.30346 4.74071 4 ft 4 kts 229°
2026-05-08 13:42 52.30321 4.74036 4 ft 5 kts 217°
2026-05-08 13:42 52.30287 4.73995 4 ft 7 kts 216°
2026-05-08 13:42 52.30246 4.73946 4 ft 8 kts 216°
2026-05-08 13:42 52.30198 4.73888 4 ft 9 kts 222°
2026-05-08 13:43 52.30188 4.73783 3 ft 10 kts 282°
2026-05-08 13:43 52.30236 4.73741 2 ft 0 kts
2026-05-08 13:44 52.30256 4.73743 2 ft 19 kts
2026-05-08 13:45 52.30656 4.73775 3 ft 92 kts
2026-05-08 13:45 52.31504 4.73857 3 ft 151 kts
2026-05-08 13:45 52.32648 4.73948 317 ft 167 kts
2026-05-08 13:45 52.33803 4.74159 926 ft 168 kts 16°
2026-05-08 13:46 52.34938 4.74957 1273 ft 191 kts 26°
2026-05-08 13:46 52.36220 4.75874 1734 ft 209 kts 23°
2026-05-08 13:46 52.37623 4.76896 2078 ft 233 kts 31°
2026-05-08 13:46 52.38916 4.78646 2527 ft 249 kts 46°
2026-05-08 13:47 52.40128 4.80728 3268 ft 255 kts 46°
2026-05-08 13:47 52.41347 4.82862 4075 ft 258 kts 50°
2026-05-08 13:47 52.42262 4.85394 4851 ft 262 kts 73°
2026-05-08 13:47 52.42486 4.88361 5597 ft 265 kts 89°
2026-05-08 13:48 52.42464 4.91393 6365 ft 268 kts 91°
2026-05-08 13:48 52.42439 4.94457 7099 ft 271 kts 91°
2026-05-08 13:48 52.42220 4.97496 7776 ft 274 kts 107°
2026-05-08 13:48 52.41357 5.00264 8465 ft 277 kts 133°
2026-05-08 13:49 52.40373 5.01657 8953 ft 278 kts 145°
2026-05-08 13:49 52.38764 5.03414 9736 ft 281 kts 147°
2026-05-08 13:49 52.36563 5.05786 10515 ft 294 kts 147°
2026-05-08 13:49 52.35398 5.07074 10723 ft 307 kts 147°
2026-05-08 13:50 52.33600 5.09171 10994 ft 326 kts 141°
2026-05-08 13:50 52.31965 5.11840 11457 ft 338 kts 133°
2026-05-08 13:50 52.30387 5.14720 12106 ft 342 kts 133°
2026-05-08 13:50 52.28797 5.17646 12800 ft 346 kts 133°
2026-05-08 13:51 52.27189 5.20587 13460 ft 350 kts 133°
2026-05-08 13:51 52.25552 5.23566 14087 ft 354 kts 133°
2026-05-08 13:51 52.23954 5.26653 14673 ft 358 kts 128°
2026-05-08 13:51 52.22491 5.29975 15261 ft 362 kts 126°
2026-05-08 13:52 52.21040 5.33352 15831 ft 366 kts 126°
2026-05-08 13:52 52.19570 5.36766 16412 ft 369 kts 126°
2026-05-08 13:52 52.18082 5.40201 16983 ft 373 kts 127°
2026-05-08 13:52 52.16595 5.43622 17526 ft 377 kts 127°
2026-05-08 13:53 52.15051 5.47164 18071 ft 381 kts 127°
2026-05-08 13:53 52.13531 5.50643 18601 ft 383 kts 127°
2026-05-08 13:53 52.11981 5.54185 19094 ft 386 kts 127°
2026-05-08 13:53 52.10420 5.57753 19580 ft 388 kts 127°
2026-05-08 13:54 52.08853 5.61336 20055 ft 390 kts 127°
2026-05-08 13:54 52.07274 5.64940 20540 ft 393 kts 127°
2026-05-08 13:54 52.05626 5.68488 21009 ft 394 kts 131°
2026-05-08 13:54 52.03838 5.71873 21481 ft 396 kts 132°
2026-05-08 13:55 52.02021 5.75253 21924 ft 398 kts 133°
2026-05-08 13:55 52.00192 5.78648 22375 ft 401 kts 133°
2026-05-08 13:55 51.96501 5.85497 23284 ft 405 kts 133°
2026-05-08 13:56 51.94645 5.88959 23715 ft 408 kts 133°
2026-05-08 13:56 51.92774 5.92447 24088 ft 411 kts 133°
2026-05-08 13:56 51.90896 5.95943 24448 ft 413 kts 133°
2026-05-08 13:56 51.89005 5.99460 24810 ft 415 kts 133°
2026-05-08 13:57 51.87105 6.02988 25192 ft 417 kts 133°
2026-05-08 13:57 51.85198 6.06525 25548 ft 419 kts 133°
2026-05-08 13:57 51.83272 6.10072 25896 ft 421 kts 133°
2026-05-08 13:57 51.81334 6.13632 26242 ft 423 kts 133°
2026-05-08 13:58 51.79383 6.17209 26579 ft 425 kts 133°
2026-05-08 13:58 51.77425 6.20797 26898 ft 427 kts 133°
2026-05-08 13:58 51.75459 6.24392 27216 ft 429 kts 133°
2026-05-08 13:58 51.73477 6.28012 27515 ft 431 kts 133°
2026-05-08 13:59 51.71489 6.31635 27802 ft 433 kts 133°
2026-05-08 13:59 51.69489 6.35274 28082 ft 435 kts 133°
2026-05-08 13:59 51.67479 6.38924 28361 ft 437 kts 133°
2026-05-08 13:59 51.65457 6.42589 28651 ft 438 kts 133°
2026-05-08 14:00 51.63426 6.46267 28936 ft 440 kts 133°
2026-05-08 14:00 51.61392 6.49949 29204 ft 442 kts 133°
2026-05-08 14:00 51.59344 6.53652 29476 ft 443 kts 133°
2026-05-08 14:00 51.57287 6.57367 29758 ft 445 kts 133°
2026-05-08 14:01 51.55225 6.61090 30026 ft 447 kts 133°
2026-05-08 14:01 51.53152 6.64826 30274 ft 449 kts 134°
2026-05-08 14:01 51.51068 6.68574 30482 ft 451 kts 134°
2026-05-08 14:01 51.48979 6.72326 30684 ft 452 kts 134°
2026-05-08 14:02 51.46875 6.76090 30870 ft 454 kts 134°
2026-05-08 14:02 51.44762 6.79862 31060 ft 456 kts 134°
2026-05-08 14:02 51.42636 6.83650 31288 ft 456 kts 134°
2026-05-08 14:02 51.40531 6.87446 31542 ft 457 kts 132°
2026-05-08 14:03 51.38529 6.91403 31796 ft 457 kts 131°
2026-05-08 14:03 51.36556 6.95378 32047 ft 457 kts 130°
2026-05-08 14:03 51.34607 6.99303 32325 ft 456 kts 131°
2026-05-08 14:03 51.32633 7.03265 32567 ft 455 kts 131°
2026-05-08 14:04 51.30662 7.07217 32810 ft 455 kts 131°
2026-05-08 14:04 51.28689 7.11165 33041 ft 454 kts 131°
2026-05-08 14:04 51.26661 7.15021 33246 ft 452 kts 136°
2026-05-08 14:04 51.24369 7.18441 33424 ft 451 kts 141°
2026-05-08 14:05 51.22008 7.21721 33618 ft 450 kts 142°
2026-05-08 14:05 51.19633 7.24991 33827 ft 450 kts 142°
2026-05-08 14:05 51.17268 7.28263 34022 ft 450 kts 142°
2026-05-08 14:05 51.14911 7.31543 34197 ft 450 kts 142°
2026-05-08 14:06 51.12554 7.34812 34317 ft 450 kts 142°
2026-05-08 14:06 51.10192 7.38087 34446 ft 450 kts 142°
2026-05-08 14:06 51.07831 7.41360 34586 ft 450 kts 142°
2026-05-08 14:06 51.05469 7.44624 34726 ft 450 kts 142°
2026-05-08 14:07 51.03105 7.47885 34848 ft 450 kts 142°
2026-05-08 14:07 51.00740 7.51140 34953 ft 451 kts 142°
2026-05-08 14:07 50.98364 7.54398 35063 ft 451 kts 142°
2026-05-08 14:08 50.93610 7.60924 35150 ft 452 kts 142°
2026-05-08 14:08 50.88846 7.67441 35134 ft 452 kts 142°
2026-05-08 14:09 50.84087 7.73948 35124 ft 453 kts 141°
2026-05-08 14:09 50.79476 7.80756 35119 ft 453 kts 139°
2026-05-08 14:10 50.74889 7.87600 35115 ft 454 kts 140°
2026-05-08 14:10 50.70323 7.94374 35115 ft 455 kts 140°
2026-05-08 14:11 50.65681 8.01249 35110 ft 456 kts 139°
2026-05-08 14:11 50.61090 8.08017 35129 ft 455 kts 139°
2026-05-08 14:12 50.56962 8.15609 35133 ft 456 kts 131°
2026-05-08 14:12 50.53010 8.23441 35133 ft 456 kts 131°
2026-05-08 14:13 50.49040 8.31261 35138 ft 456 kts 131°
2026-05-08 14:13 50.45067 8.39049 35126 ft 456 kts 131°
2026-05-08 14:14 50.41075 8.46835 35130 ft 457 kts 131°
2026-05-08 14:14 50.37020 8.54515 35122 ft 456 kts 135°
2026-05-08 14:15 50.32703 8.61774 35113 ft 456 kts 135°
2026-05-08 14:15 50.28375 8.69000 35114 ft 455 kts 135°
2026-05-08 14:16 50.24050 8.76210 35111 ft 455 kts 135°
2026-05-08 14:16 50.19724 8.83401 35113 ft 455 kts 135°
2026-05-08 14:17 50.15397 8.90590 35108 ft 455 kts 136°
2026-05-08 14:17 50.11062 8.97762 35112 ft 456 kts 136°
2026-05-08 14:18 50.06725 9.04908 35106 ft 454 kts 136°
2026-05-08 14:18 50.02399 9.12026 35110 ft 453 kts 136°
2026-05-08 14:19 49.98059 9.19139 35107 ft 453 kts 136°
2026-05-08 14:19 49.93719 9.26247 35102 ft 453 kts 136°
2026-05-08 14:20 49.89375 9.33340 35111 ft 453 kts 136°
2026-05-08 14:20 49.85028 9.40414 35113 ft 453 kts 136°
2026-05-08 14:21 49.80670 9.47481 35100 ft 453 kts 136°
2026-05-08 14:21 49.76316 9.54522 35111 ft 453 kts 136°
2026-05-08 14:22 49.71961 9.61555 35108 ft 454 kts 136°
2026-05-08 14:22 49.67598 9.68574 35109 ft 453 kts 136°
2026-05-08 14:23 49.63225 9.75572 35104 ft 453 kts 136°
2026-05-08 14:23 49.58851 9.82566 35103 ft 453 kts 136°
2026-05-08 14:24 49.54474 9.89551 35098 ft 453 kts 136°
2026-05-08 14:24 49.50091 9.96532 35109 ft 454 kts 136°
2026-05-08 14:25 49.45712 10.03492 35110 ft 453 kts 136°
2026-05-08 14:25 49.41322 10.10436 35112 ft 453 kts 136°
2026-05-08 14:26 49.36927 10.17368 35113 ft 453 kts 136°
2026-05-08 14:26 49.32531 10.24294 35118 ft 453 kts 136°
2026-05-08 14:27 49.28130 10.31200 35114 ft 453 kts 136°
2026-05-08 14:27 49.23654 10.37968 35113 ft 451 kts 143°
2026-05-08 14:28 49.18400 10.43148 35128 ft 448 kts 152°
2026-05-08 14:28 49.13020 10.47968 35140 ft 448 kts 152°
2026-05-08 14:29 49.07663 10.52816 35138 ft 448 kts 152°
2026-05-08 14:29 49.02303 10.57674 35125 ft 448 kts 152°
2026-05-08 14:30 48.96935 10.62527 35128 ft 448 kts 153°
2026-05-08 14:30 48.91568 10.67366 35123 ft 448 kts 153°
2026-05-08 14:31 48.86230 10.72168 35121 ft 448 kts 153°
2026-05-08 14:31 48.80973 10.77277 35105 ft 453 kts 143°
2026-05-08 14:32 48.74462 10.87858 35085 ft 458 kts 135°
2026-05-08 14:32 48.70211 10.95053 35080 ft 458 kts 136°
2026-05-08 14:33 48.65935 11.02200 35079 ft 458 kts 136°
2026-05-08 14:33 48.61653 11.09331 35081 ft 458 kts 136°
2026-05-08 14:34 48.57367 11.16449 35078 ft 458 kts 136°
2026-05-08 14:34 48.53084 11.23549 35072 ft 458 kts 136°
2026-05-08 14:35 48.48795 11.30635 35053 ft 458 kts 137°
2026-05-08 14:35 48.45243 11.36479 35064 ft 454 kts 138°
2026-05-08 14:36 48.40970 11.43504 35071 ft 455 kts 138°
2026-05-08 14:36 48.36694 11.50518 35074 ft 454 kts 138°
2026-05-08 14:37 48.32423 11.57518 35078 ft 454 kts 138°
2026-05-08 14:37 48.28148 11.64495 35080 ft 454 kts 138°
2026-05-08 14:38 48.23701 11.71178 35077 ft 448 kts 143°
2026-05-08 14:38 48.19079 11.77479 35073 ft 448 kts 144°
2026-05-08 14:39 48.14463 11.83799 35067 ft 449 kts 143°
2026-05-08 14:39 48.09858 11.90110 35056 ft 449 kts 144°
2026-05-08 14:40 48.05242 11.96408 35050 ft 450 kts 144°
2026-05-08 14:40 48.00631 12.02688 35034 ft 449 kts 144°
2026-05-08 14:41 47.96040 12.08918 35037 ft 446 kts 144°
2026-05-08 14:41 47.91446 12.15145 35042 ft 446 kts 144°
2026-05-08 14:42 47.86848 12.21364 35043 ft 447 kts 144°
2026-05-08 14:42 47.82259 12.27560 35043 ft 446 kts 144°
2026-05-08 14:43 47.77657 12.33749 35036 ft 445 kts 144°
2026-05-08 14:43 47.73069 12.39905 35035 ft 442 kts 144°
2026-05-08 14:44 47.68490 12.46027 35031 ft 443 kts 144°
2026-05-08 14:44 47.63945 12.52107 35019 ft 443 kts 144°
2026-05-08 14:45 47.59438 12.58369 35033 ft 444 kts 143°
2026-05-08 14:45 47.54980 12.64694 35022 ft 445 kts 143°
2026-05-08 14:46 47.50491 12.71043 35018 ft 444 kts 142°
2026-05-08 14:46 47.46023 12.77341 35035 ft 446 kts 142°
2026-05-08 14:47 47.41547 12.83636 35029 ft 445 kts 143°
2026-05-08 14:47 47.37076 12.89912 35028 ft 444 kts 143°
2026-05-08 14:48 47.32588 12.96178 35030 ft 445 kts 143°
2026-05-08 14:48 47.28087 13.02439 35029 ft 445 kts 142°
2026-05-08 14:49 47.23581 13.08721 35017 ft 447 kts 142°
2026-05-08 14:49 47.19060 13.15007 35035 ft 446 kts 142°
2026-05-08 14:50 47.14540 13.21270 35024 ft 446 kts 142°
2026-05-08 14:50 47.10012 13.27516 35016 ft 448 kts 142°
2026-05-08 14:51 47.05454 13.33803 35027 ft 451 kts 143°
2026-05-08 14:51 47.00872 13.40109 35016 ft 452 kts 143°
2026-05-08 14:52 46.94009 13.49514 35013 ft 450 kts 143°
2026-05-08 14:53 46.89429 13.55770 35046 ft 450 kts 143°
2026-05-08 14:53 46.84844 13.62010 35030 ft 450 kts 143°
2026-05-08 14:54 46.80273 13.68218 35038 ft 450 kts 143°
2026-05-08 14:54 46.75712 13.74402 35009 ft 446 kts 143°
2026-05-08 14:55 46.71161 13.80560 35048 ft 446 kts 143°
2026-05-08 14:55 46.66623 13.86693 35048 ft 445 kts 143°
2026-05-08 14:56 46.62066 13.92825 35028 ft 448 kts 143°
2026-05-08 14:56 46.57488 13.98976 35036 ft 448 kts 143°
2026-05-08 14:57 46.52907 14.05117 35028 ft 448 kts 143°
2026-05-08 14:57 46.48317 14.11247 35030 ft 449 kts 143°
2026-05-08 14:58 46.43716 14.17384 35026 ft 449 kts 143°
2026-05-08 14:58 46.39104 14.23518 35029 ft 449 kts 143°
2026-05-08 14:59 46.34515 14.29614 35023 ft 448 kts 143°
2026-05-08 14:59 46.27643 14.38706 35023 ft 448 kts 143°
2026-05-08 15:00 46.23020 14.44807 35020 ft 446 kts 143°
2026-05-08 15:00 46.18426 14.50853 35010 ft 446 kts 142°
2026-05-08 15:01 46.13824 14.56890 35023 ft 446 kts 142°
2026-05-08 15:01 46.09255 14.62879 35024 ft 446 kts 142°
2026-05-08 15:02 46.04659 14.68895 35025 ft 447 kts 142°
2026-05-08 15:02 46.00059 14.74891 35021 ft 446 kts 142°
2026-05-08 15:03 45.95458 14.80871 35022 ft 448 kts 142°
2026-05-08 15:03 45.90841 14.86868 35026 ft 447 kts 142°
2026-05-08 15:04 45.86219 14.92862 35025 ft 448 kts 142°
2026-05-08 15:04 45.81591 14.98844 35031 ft 447 kts 143°
2026-05-08 15:05 45.76963 15.04807 35031 ft 448 kts 143°
2026-05-08 15:05 45.72335 15.10763 35024 ft 447 kts 143°
2026-05-08 15:06 45.67711 15.16693 35029 ft 447 kts 143°
2026-05-08 15:06 45.63083 15.22616 35032 ft 447 kts 143°
2026-05-08 15:07 45.58451 15.28531 35030 ft 447 kts 143°
2026-05-08 15:07 45.53783 15.34367 35033 ft 445 kts 144°
2026-05-08 15:08 45.49871 15.39135 35030 ft 445 kts 144°
2026-05-08 15:08 45.44373 15.45854 35031 ft 445 kts 144°
2026-05-08 15:09 45.39707 15.51546 35032 ft 445 kts 144°
2026-05-08 15:09 45.35015 15.57274 35030 ft 445 kts 144°
2026-05-08 15:10 45.30309 15.62988 35026 ft 445 kts 144°
2026-05-08 15:10 45.25592 15.68716 35027 ft 446 kts 144°
2026-05-08 15:11 45.20882 15.74424 35030 ft 445 kts 144°
2026-05-08 15:11 45.16172 15.80123 35034 ft 445 kts 144°
2026-05-08 15:12 45.11457 15.85807 35031 ft 445 kts 144°
2026-05-08 15:12 45.06735 15.91476 35026 ft 445 kts 144°
2026-05-08 15:13 45.02006 15.97150 35029 ft 447 kts 144°
2026-05-08 15:13 44.97274 16.02819 35039 ft 445 kts 144°
2026-05-08 15:14 44.92549 16.08468 35036 ft 445 kts 144°
2026-05-08 15:14 44.87826 16.14098 35034 ft 445 kts 144°
2026-05-08 15:15 44.83093 16.19731 35037 ft 445 kts 144°
2026-05-08 15:15 44.78355 16.25348 35039 ft 445 kts 144°
2026-05-08 15:16 44.73617 16.30955 35044 ft 445 kts 144°
2026-05-08 15:16 44.68878 16.36554 35044 ft 445 kts 144°
2026-05-08 15:17 44.64135 16.42147 35045 ft 445 kts 144°
2026-05-08 15:17 44.59403 16.47718 35041 ft 443 kts 144°
2026-05-08 15:18 44.54675 16.53267 35038 ft 443 kts 143°
2026-05-08 15:18 44.49943 16.58811 35046 ft 443 kts 143°
2026-05-08 15:19 44.45206 16.64348 35048 ft 444 kts 144°
2026-05-08 15:19 44.40463 16.69874 35026 ft 444 kts 144°
2026-05-08 15:20 44.35717 16.75395 35035 ft 444 kts 143°
2026-05-08 15:20 44.30957 16.80916 35027 ft 446 kts 143°
2026-05-08 15:21 44.26989 16.85514 35027 ft 446 kts 143°
2026-05-08 15:21 44.21432 16.91934 35034 ft 446 kts 143°
2026-05-08 15:22 44.16657 16.97446 35098 ft 447 kts 143°
2026-05-08 15:22 44.14260 17.00208 35233 ft 448 kts 143°
2026-05-08 15:22 44.12637 17.02075 35319 ft 448 kts 144°
2026-05-08 15:23 44.10232 17.04840 35445 ft 449 kts 144°
2026-05-08 15:23 44.07825 17.07602 35581 ft 449 kts 144°
2026-05-08 15:23 44.05413 17.10363 35707 ft 449 kts 144°
2026-05-08 15:23 44.03032 17.13090 35811 ft 450 kts 144°
2026-05-08 15:24 43.98192 17.18611 35996 ft 451 kts 144°
2026-05-08 15:24 43.93348 17.24134 36222 ft 451 kts 144°
2026-05-08 15:25 43.90926 17.26893 36342 ft 451 kts 144°
2026-05-08 15:25 43.88500 17.29652 36449 ft 451 kts 144°
2026-05-08 15:25 43.83643 17.35168 36630 ft 452 kts 144°
2026-05-08 15:26 43.78765 17.40691 36832 ft 454 kts 144°
2026-05-08 15:26 43.76323 17.43456 36946 ft 454 kts 144°
2026-05-08 15:26 43.73883 17.46219 37024 ft 455 kts 143°
2026-05-08 15:27 43.68988 17.51745 37028 ft 454 kts 143°
2026-05-08 15:27 43.64094 17.57255 37019 ft 454 kts 143°
2026-05-08 15:28 43.59192 17.62765 37009 ft 456 kts 143°
2026-05-08 15:28 43.54182 17.68098 37013 ft 455 kts 148°
2026-05-08 15:29 43.48992 17.73062 37013 ft 453 kts 148°
2026-05-08 15:29 43.43790 17.78018 37014 ft 454 kts 148°
2026-05-08 15:30 43.38593 17.82965 37002 ft 455 kts 148°
2026-05-08 15:30 43.33397 17.87902 36998 ft 455 kts 148°
2026-05-08 15:31 43.28234 17.92799 36994 ft 454 kts 148°
2026-05-08 15:31 43.22993 17.97762 36998 ft 453 kts 148°
2026-05-08 15:32 43.17825 18.02641 37003 ft 456 kts 148°
2026-05-08 15:32 43.12615 18.07547 37008 ft 457 kts 148°
2026-05-08 15:33 43.07388 18.12466 37017 ft 456 kts 148°
2026-05-08 15:33 43.02165 18.17366 37017 ft 455 kts 148°
2026-05-08 15:34 42.96928 18.22260 37017 ft 454 kts 148°
2026-05-08 15:34 42.91692 18.27152 37015 ft 457 kts 148°
2026-05-08 15:35 42.86444 18.31994 37011 ft 456 kts 150°
2026-05-08 15:35 42.81091 18.36566 37007 ft 454 kts 151°
2026-05-08 15:36 42.75724 18.41133 37006 ft 453 kts 151°
2026-05-08 15:36 42.70362 18.45710 36993 ft 453 kts 150°
2026-05-08 15:37 42.65017 18.50269 36997 ft 455 kts 150°
2026-05-08 15:37 42.59652 18.54832 36997 ft 454 kts 150°
2026-05-08 15:38 42.54291 18.59381 36994 ft 453 kts 151°
2026-05-08 15:38 42.48923 18.63924 37000 ft 455 kts 151°
2026-05-08 15:39 42.43562 18.68452 36993 ft 456 kts 151°
2026-05-08 15:39 42.38183 18.72990 37007 ft 454 kts 151°
2026-05-08 15:40 42.32850 18.77479 36979 ft 455 kts 151°
2026-05-08 15:40 42.27428 18.82030 36984 ft 458 kts 151°
2026-05-08 15:41 42.22016 18.86566 36980 ft 458 kts 151°
2026-05-08 15:41 42.16639 18.91061 36984 ft 457 kts 151°
2026-05-08 15:42 42.11217 18.95587 36985 ft 458 kts 151°
2026-05-08 15:42 42.05802 19.00097 36976 ft 459 kts 151°
2026-05-08 15:43 42.00383 19.04600 36965 ft 458 kts 151°
2026-05-08 15:43 41.94939 19.09114 36968 ft 460 kts 151°
2026-05-08 15:44 41.89503 19.13616 36973 ft 460 kts 151°
2026-05-08 15:44 41.84067 19.18108 36979 ft 459 kts 151°
2026-05-08 15:45 41.78627 19.22585 36971 ft 458 kts 151°
2026-05-08 15:45 41.73174 19.27068 36967 ft 462 kts 151°
2026-05-08 15:46 41.67720 19.31553 36986 ft 460 kts 152°
2026-05-08 15:46 41.62257 19.36031 36976 ft 459 kts 152°
2026-05-08 15:47 41.56796 19.40502 36995 ft 460 kts 151°
2026-05-08 15:47 41.51323 19.44971 36980 ft 463 kts 152°
2026-05-08 15:48 41.43107 19.51659 36987 ft 462 kts 152°
2026-05-08 15:49 41.37636 19.56105 36988 ft 462 kts 152°
2026-05-08 15:49 41.32164 19.60539 36988 ft 460 kts 152°
2026-05-08 15:50 41.26669 19.64988 36986 ft 463 kts 152°
2026-05-08 15:50 41.21158 19.69433 36990 ft 463 kts 152°
2026-05-08 15:51 41.15652 19.73866 36989 ft 463 kts 152°
2026-05-08 15:51 41.10187 19.78262 36989 ft 463 kts 152°
2026-05-08 15:52 41.04676 19.82685 36989 ft 462 kts 152°
2026-05-08 15:52 40.99149 19.87111 36977 ft 462 kts 152°
2026-05-08 15:53 40.93670 19.91489 36988 ft 462 kts 152°
2026-05-08 15:53 40.88173 19.95863 36981 ft 462 kts 152°
2026-05-08 15:54 40.82679 20.00246 36969 ft 463 kts 152°
2026-05-08 15:54 40.77144 20.04641 36978 ft 466 kts 152°
2026-05-08 15:55 40.71598 20.09044 36984 ft 465 kts 152°
2026-05-08 15:55 40.63270 20.15637 36987 ft 466 kts 152°
2026-05-08 15:56 40.57722 20.20013 36974 ft 466 kts 153°
2026-05-08 15:56 40.52133 20.24415 36989 ft 470 kts 153°
2026-05-08 15:57 40.46547 20.28806 37001 ft 467 kts 153°
2026-05-08 15:57 40.40956 20.33194 36984 ft 470 kts 153°
2026-05-08 15:58 40.35342 20.37592 36987 ft 469 kts 153°
2026-05-08 15:58 40.29709 20.41991 37000 ft 474 kts 153°
2026-05-08 15:59 40.24050 20.46407 36999 ft 473 kts 153°
2026-05-08 15:59 40.18373 20.50824 37007 ft 474 kts 153°
2026-05-08 16:00 40.12707 20.55227 37012 ft 474 kts 153°
2026-05-08 16:00 40.07044 20.59690 37014 ft 480 kts 150°
2026-05-08 16:01 40.01648 20.64853 37027 ft 480 kts 147°
2026-05-08 16:01 39.96279 20.70075 37030 ft 480 kts 147°
2026-05-08 16:02 39.90937 20.75234 37019 ft 482 kts 147°
2026-05-08 16:02 39.85557 20.80418 37045 ft 481 kts 148°
2026-05-08 16:03 39.80139 20.85613 37052 ft 485 kts 148°
2026-05-08 16:03 39.74726 20.90819 37051 ft 485 kts 148°
2026-05-08 16:04 39.69299 20.96017 37049 ft 485 kts 148°
2026-05-08 16:04 39.63897 21.01179 37048 ft 485 kts 148°
2026-05-08 16:05 39.58457 21.06362 37038 ft 487 kts 149°
2026-05-08 16:05 39.52970 21.11576 37044 ft 489 kts 149°
2026-05-08 16:06 39.47501 21.16776 37038 ft 487 kts 149°
2026-05-08 16:06 39.42041 21.21947 37047 ft 488 kts 149°
2026-05-08 16:07 39.36586 21.27108 37039 ft 486 kts 149°
2026-05-08 16:07 39.31116 21.32270 37036 ft 489 kts 150°
2026-05-08 16:08 39.25618 21.37450 37036 ft 488 kts 150°
2026-05-08 16:08 39.20125 21.42619 37047 ft 490 kts 150°
2026-05-08 16:09 39.15520 21.46945 37045 ft 488 kts 150°
2026-05-08 16:09 39.09135 21.52924 37048 ft 487 kts 150°
2026-05-08 16:10 39.04543 21.57171 37039 ft 489 kts 153°
2026-05-08 16:10 38.98836 21.61907 37048 ft 487 kts 154°
2026-05-08 16:11 38.93126 21.66611 37053 ft 488 kts 154°
2026-05-08 16:11 38.87410 21.71325 37052 ft 488 kts 154°
2026-05-08 16:12 38.81702 21.76023 37023 ft 488 kts 154°
2026-05-08 16:12 38.75964 21.80745 37038 ft 489 kts 154°
2026-05-08 16:13 38.70237 21.85446 37050 ft 490 kts 154°
2026-05-08 16:13 38.64502 21.90167 37033 ft 489 kts 154°
2026-05-08 16:14 38.58764 21.94859 37043 ft 489 kts 154°
2026-05-08 16:14 38.53026 21.99538 37041 ft 490 kts 154°
2026-05-08 16:15 38.47286 22.04225 37045 ft 490 kts 154°
2026-05-08 16:15 38.41545 22.08907 37045 ft 490 kts 154°
2026-05-08 16:16 38.35803 22.13577 37007 ft 489 kts 154°
2026-05-08 16:16 38.30079 22.18213 37014 ft 488 kts 154°
2026-05-08 16:17 38.24329 22.22859 37034 ft 489 kts 154°
2026-05-08 16:17 38.18585 22.27495 37035 ft 490 kts 154°
2026-05-08 16:18 38.12841 22.32113 37036 ft 490 kts 154°
2026-05-08 16:18 38.07107 22.36730 37034 ft 487 kts 154°
2026-05-08 16:19 38.01353 22.41312 37017 ft 490 kts 154°
2026-05-08 16:19 37.95648 22.45872 36991 ft 486 kts 154°
2026-05-08 16:20 37.89912 22.50467 37027 ft 488 kts 154°
2026-05-08 16:20 37.84214 22.55008 37041 ft 484 kts 154°
2026-05-08 16:21 37.78529 22.59530 36994 ft 483 kts 154°
2026-05-08 16:21 37.72821 22.64082 37022 ft 486 kts 154°
2026-05-08 16:22 37.67098 22.68616 37042 ft 482 kts 154°
2026-05-08 16:22 37.61422 22.73108 37037 ft 482 kts 154°
2026-05-08 16:23 37.55747 22.77586 36893 ft 476 kts 154°
2026-05-08 16:23 37.52938 22.79802 36502 ft 477 kts 154°
2026-05-08 16:23 37.50139 22.82005 36223 ft 474 kts 154°
2026-05-08 16:24 37.47342 22.84214 35975 ft 474 kts 154°
2026-05-08 16:24 37.44584 22.86383 35723 ft 474 kts 154°
2026-05-08 16:24 37.41785 22.88586 35477 ft 474 kts 154°
2026-05-08 16:24 37.38996 22.90780 35233 ft 472 kts 154°
2026-05-08 16:25 37.36212 22.92966 34992 ft 471 kts 154°
2026-05-08 16:25 37.33440 22.95142 34747 ft 469 kts 154°
2026-05-08 16:25 37.30686 22.97299 34387 ft 465 kts 154°
2026-05-08 16:25 37.27944 22.99441 33865 ft 463 kts 154°
2026-05-08 16:26 37.25209 23.01587 33241 ft 462 kts 153°
2026-05-08 16:26 37.22485 23.03719 32671 ft 460 kts 154°
2026-05-08 16:26 37.19774 23.05837 32105 ft 459 kts 154°
2026-05-08 16:26 37.17069 23.07949 31523 ft 458 kts 153°
2026-05-08 16:27 37.14372 23.10055 30984 ft 456 kts 154°
2026-05-08 16:27 37.11677 23.12150 30444 ft 455 kts 154°
2026-05-08 16:27 37.08992 23.14237 29865 ft 454 kts 154°
2026-05-08 16:27 37.06312 23.16322 29240 ft 453 kts 154°
2026-05-08 16:28 37.03645 23.18398 28643 ft 451 kts 154°
2026-05-08 16:28 37.00983 23.20466 28078 ft 449 kts 154°
2026-05-08 16:28 36.98338 23.22523 27525 ft 445 kts 154°
2026-05-08 16:28 36.95724 23.24548 26972 ft 441 kts 154°
2026-05-08 16:29 36.93128 23.26559 26424 ft 436 kts 154°
2026-05-08 16:29 36.90558 23.28550 25897 ft 432 kts 153°
2026-05-08 16:29 36.88013 23.30519 25374 ft 429 kts 153°
2026-05-08 16:29 36.85495 23.32466 24854 ft 425 kts 153°
2026-05-08 16:30 36.82983 23.34402 24323 ft 422 kts 153°
2026-05-08 16:30 36.80431 23.36139 23785 ft 414 kts 162°
2026-05-08 16:30 36.77773 23.37447 23218 ft 408 kts 165°
2026-05-08 16:30 36.75131 23.38692 22668 ft 404 kts 165°
2026-05-08 16:31 36.72508 23.39931 22080 ft 401 kts 164°
2026-05-08 16:31 36.69950 23.41150 21580 ft 397 kts 164°
2026-05-08 16:31 36.67387 23.42374 21068 ft 393 kts 164°
2026-05-08 16:31 36.64846 23.43588 20579 ft 390 kts 164°
2026-05-08 16:32 36.62320 23.44794 20097 ft 386 kts 164°
2026-05-08 16:32 36.59823 23.45986 19640 ft 382 kts 164°
2026-05-08 16:32 36.57355 23.47166 19206 ft 378 kts 164°
2026-05-08 16:32 36.54911 23.48334 18758 ft 375 kts 164°
2026-05-08 16:33 36.52487 23.49493 18318 ft 371 kts 164°
2026-05-08 16:33 36.50085 23.50638 17846 ft 368 kts 164°
2026-05-08 16:33 36.47714 23.51771 17390 ft 363 kts 164°
2026-05-08 16:33 36.45370 23.52891 16958 ft 359 kts 165°
2026-05-08 16:34 36.43049 23.53994 16534 ft 355 kts 165°
2026-05-08 16:34 36.40750 23.55081 16118 ft 351 kts 165°
2026-05-08 16:34 36.38480 23.56155 15740 ft 348 kts 165°
2026-05-08 16:34 36.36213 23.57224 15356 ft 349 kts 165°
2026-05-08 16:35 36.33946 23.58294 14973 ft 349 kts 165°
2026-05-08 16:35 36.31671 23.59370 14561 ft 351 kts 165°
2026-05-08 16:35 36.29387 23.60452 14153 ft 352 kts 165°
2026-05-08 16:35 36.27092 23.61537 13751 ft 353 kts 165°
2026-05-08 16:36 36.24795 23.62624 13326 ft 353 kts 165°
2026-05-08 16:36 36.22503 23.63707 12896 ft 351 kts 165°
2026-05-08 16:36 36.20238 23.64779 12487 ft 346 kts 165°
2026-05-08 16:36 36.18005 23.65836 12096 ft 342 kts 166°
2026-05-08 16:37 36.15798 23.66879 11706 ft 338 kts 166°
2026-05-08 16:37 36.13618 23.67912 11342 ft 333 kts 166°
2026-05-08 16:37 36.11466 23.68930 10985 ft 329 kts 166°
2026-05-08 16:37 36.09344 23.69931 10657 ft 324 kts 166°
2026-05-08 16:38 36.07263 23.70913 10398 ft 316 kts 166°
2026-05-08 16:38 36.05235 23.71870 10201 ft 307 kts 167°
2026-05-08 16:38 36.03251 23.72801 9902 ft 304 kts 167°
2026-05-08 16:38 36.01277 23.73726 9511 ft 303 kts 167°
2026-05-08 16:39 35.99309 23.74651 9120 ft 302 kts 166°
2026-05-08 16:39 35.97352 23.75570 8717 ft 300 kts 166°
2026-05-08 16:39 35.95400 23.76485 8320 ft 299 kts 166°
2026-05-08 16:39 35.93464 23.77392 7958 ft 296 kts 165°
2026-05-08 16:40 35.91545 23.78293 7589 ft 294 kts 165°
2026-05-08 16:40 35.89638 23.79188 7224 ft 292 kts 165°
2026-05-08 16:40 35.87743 23.80077 6850 ft 291 kts 165°
2026-05-08 16:40 35.85859 23.80959 6494 ft 289 kts 165°
2026-05-08 16:41 35.83983 23.81837 6132 ft 287 kts 164°
2026-05-08 16:41 35.82126 23.82706 5797 ft 284 kts 164°
2026-05-08 16:41 35.80288 23.83564 5473 ft 281 kts 163°
2026-05-08 16:42 35.76682 23.85249 4833 ft 274 kts 163°
2026-05-08 16:42 35.74911 23.86076 4516 ft 270 kts 163°
2026-05-08 16:42 35.73173 23.86887 4253 ft 264 kts 163°
2026-05-08 16:42 35.71471 23.87678 3995 ft 259 kts 162°
2026-05-08 16:43 35.69810 23.88453 3744 ft 253 kts 161°
2026-05-08 16:43 35.68180 23.89212 3498 ft 248 kts 161°
2026-05-08 16:43 35.66600 23.89949 3385 ft 237 kts 161°
2026-05-08 16:43 35.65108 23.90644 3367 ft 221 kts 161°
2026-05-08 16:44 35.63749 23.91277 3390 ft 195 kts 161°
2026-05-08 16:44 35.62515 23.91849 3416 ft 187 kts 162°
2026-05-08 16:44 35.61301 23.92411 3404 ft 187 kts 160°
2026-05-08 16:44 35.60237 23.93317 3342 ft 191 kts 129°
2026-05-08 16:45 35.59708 23.94795 3062 ft 188 kts 112°
2026-05-08 16:45 35.59268 23.96291 2767 ft 185 kts 113°
2026-05-08 16:45 35.58804 23.97758 2441 ft 183 kts 114°
2026-05-08 16:45 35.58352 23.99157 2329 ft 169 kts 114°
2026-05-08 16:46 35.57917 24.00483 2301 ft 166 kts 115°
2026-05-08 16:46 35.57482 24.01793 2291 ft 165 kts 115°
2026-05-08 16:46 35.57053 24.03108 2246 ft 167 kts 114°
2026-05-08 16:46 35.56626 24.04409 2033 ft 159 kts 115°
2026-05-08 16:47 35.56217 24.05629 1793 ft 152 kts 115°
2026-05-08 16:47 35.55824 24.06831 1569 ft 151 kts 115°
2026-05-08 16:47 35.55442 24.08008 1428 ft 147 kts 115°
2026-05-08 16:47 35.55057 24.09166 1222 ft 146 kts 114°
2026-05-08 16:48 35.54688 24.10313 1019 ft 144 kts 113°
2026-05-08 16:48 35.54317 24.11454 851 ft 144 kts 112°
2026-05-08 16:48 35.53944 24.12593 679 ft 143 kts 111°
2026-05-08 16:48 35.53581 24.13727 518 ft 141 kts 111°
2026-05-08 16:49 35.53268 24.14708 500 ft 101 kts 112°
2026-05-08 16:49 35.53074 24.15291 491 ft 54 kts 113°
2026-05-08 16:49 35.52957 24.15658 499 ft 31 kts 111°
2026-05-08 16:49 35.52890 24.15867 500 ft 16 kts 112°
2026-05-08 16:50 35.52945 24.15966 502 ft 18 kts 19°
2026-05-08 16:50 35.53041 24.15963 503 ft 14 kts 298°
2026-05-08 16:50 35.53082 24.15838 503 ft 17 kts 291°
2026-05-08 16:50 35.53129 24.15690 502 ft 20 kts 291°
2026-05-08 16:51 35.53183 24.15520 502 ft 23 kts 291°
2026-05-08 16:51 35.53243 24.15330 501 ft 25 kts 292°
2026-05-08 16:51 35.53311 24.15122 502 ft 27 kts 292°
2026-05-08 16:51 35.53384 24.14903 502 ft 28 kts 292°
2026-05-08 16:52 35.53460 24.14674 502 ft 30 kts 292°
2026-05-08 16:52 35.53532 24.14458 503 ft 25 kts 291°
2026-05-08 16:52 35.53597 24.14253 503 ft 27 kts 291°
2026-05-08 16:52 35.53656 24.14075 504 ft 15 kts 292°
2026-05-08 16:53 35.53799 24.14027 503 ft 9 kts 20°
2026-05-08 16:53 35.53857 24.14054 503 ft 8 kts 20°
2026-05-08 16:53 35.53872 24.14061 503 ft 0 kts 21°